,,Stat1,,Stat2,,Stat3,,Stat4,,Wind1,,Wind1,
time,status,PR1M_SUM,status,RH1M_AVG,status,SR1M_AVG,status,TA1M_AVG,status,W1dAve1m,status,W1sAve1m,
1999-09-06, 00:01:00,VALID,0,VALID,98.295,VALID,-0.0509425,VALID,17.6734,VALID,224,VALID,0,
1999-09-06, 00:02:00,VALID,0,VALID,98.2467,VALID,-0.0169808,VALID,17.6604,VALID,223,VALID,0,
1999-09-06, 00:03:00,VALID,0,VALID,98.1768,VALID,-0.0509425,VALID,17.6348,VALID,209,VALID,0.595881,
1999-09-06, 00:04:00,VALID,0,VALID,98.2607,VALID,-0.0509425,VALID,17.638,VALID,208,VALID,0.779535,
1999-09-06, 00:05:00,VALID,0,VALID,98.4158,VALID,-0.0509425,VALID,17.6385,VALID,216,VALID,0.694661,
1999-09-06, 00:06:01,VALID,0,VALID,98.6943,VALID,0,VALID,17.6865,VALID,213,VALID,0.518164,
1999-09-06, 00:07:00,VALID,0,VALID,98.6142,VALID,-0.0679233,VALID,17.693,VALID,213,VALID,0.352273,
1999-09-06, 00:08:00,VALID,0,VALID,98.5112,VALID,-0.0509425,VALID,17.6835,VALID,211,VALID,0.294017,
1999-09-06, 00:09:00,VALID,0,VALID,98.454,VALID,-0.0339617,VALID,17.6872,VALID,211,VALID,0.186849,
1999-09-06, 00:10:00,VALID,0,VALID,98.5227,VALID,0,VALID,17.7024,VALID,211,VALID,0.00351562,
1999-09-06, 00:11:00,VALID,0,VALID,98.557,VALID,-0.0169808,VALID,17.732,VALID,210,VALID,0,
1999-09-06, 00:12:00,VALID,0,VALID,98.4273,VALID,-0.0509425,VALID,17.7382,VALID,210,VALID,0,
1999-09-06, 00:13:00,VALID,0,VALID,97.3502,VALID,-0.0509425,VALID,17.6186,VALID,199,VALID,0,
1999-09-06, 00:14:00,VALID,0,VALID,97.3032,VALID,-0.0339617,VALID,17.6516,VALID,196,VALID,0,
1999-09-06, 00:15:00,VALID,0,VALID,97.6796,VALID,-0.0509425,VALID,17.6869,VALID,195,VALID,0,
1999-09-06, 00:16:00,VALID,0,VALID,97.7737,VALID,-0.0169808,VALID,17.6964,VALID,195,VALID,0,
1999-09-06, 00:17:01,VALID,0,VALID,98.2772,VALID,-0.0339617,VALID,17.7451,VALID,195,VALID,0,
1999-09-06, 00:18:00,VALID,0,VALID,98.4781,VALID,-0.0339617,VALID,17.7839,VALID,195,VALID,0,
1999-09-06, 00:19:00,VALID,0,VALID,98.632,VALID,-0.0509425,VALID,17.8227,VALID,195,VALID,0,
1999-09-06, 00:20:00,VALID,0,VALID,98.6841,VALID,-0.0679233,VALID,17.8578,VALID,195,VALID,0,
1999-09-06, 00:21:00,VALID,0,VALID,98.6829,VALID,-0.0509425,VALID,17.8836,VALID,195,VALID,0,
1999-09-06, 00:22:00,VALID,0,VALID,98.3319,VALID,-0.0339617,VALID,17.8707,VALID,195,VALID,0,
1999-09-06, 00:23:00,VALID,0,VALID,97.8296,VALID,-0.0509425,VALID,17.8421,VALID,195,VALID,0,
1999-09-06, 00:24:00,VALID,0,VALID,97.424,VALID,-0.0339617,VALID,17.8453,VALID,195,VALID,0,
1999-09-06, 00:25:00,VALID,0,VALID,97.4125,VALID,0,VALID,17.8601,VALID,195,VALID,0,
1999-09-06, 00:26:01,VALID,0,VALID,98.1463,VALID,0.0339617,VALID,17.9575,VALID,202,VALID,0,
1999-09-06, 00:27:00,VALID,0,VALID,98.2251,VALID,0.0679233,VALID,17.9898,VALID,219,VALID,0,
1999-09-06, 00:28:01,VALID,0,VALID,97.9657,VALID,0.0169808,VALID,17.9441,VALID,219,VALID,0.154345,
1999-09-06, 00:29:00,VALID,0,VALID,97.8207,VALID,0.0679233,VALID,17.9116,VALID,231,VALID,0.438151,
1999-09-06, 00:30:00,VALID,0,VALID,97.9517,VALID,0.0679233,VALID,17.9118,VALID,226,VALID,0.420508,
1999-09-06, 00:31:00,VALID,0,VALID,98.0839,VALID,0.0509425,VALID,17.912,VALID,219,VALID,0,
1999-09-06, 00:32:00,VALID,0,VALID,98.1488,VALID,0.0169808,VALID,17.9151,VALID,219,VALID,0,
1999-09-06, 00:33:00,VALID,0,VALID,98.2098,VALID,0.0679233,VALID,17.9245,VALID,219,VALID,0,
1999-09-06, 00:34:00,VALID,0,VALID,98.3637,VALID,0.0339617,VALID,17.9344,VALID,219,VALID,0,
1999-09-06, 00:35:00,VALID,0,VALID,98.5163,VALID,0.0679233,VALID,17.9735,VALID,219,VALID,0,
1999-09-06, 00:36:00,VALID,0,VALID,98.1691,VALID,0.0679233,VALID,17.9275,VALID,192,VALID,0,
1999-09-06, 00:37:00,VALID,0,VALID,97.8296,VALID,0.0339617,VALID,17.8827,VALID,176,VALID,0,
1999-09-06, 00:38:01,VALID,0,VALID,97.9008,VALID,0.0679233,VALID,17.8954,VALID,176,VALID,0,
1999-09-06, 00:39:01,VALID,0,VALID,98.1755,VALID,0.0679233,VALID,17.9377,VALID,176,VALID,0,
1999-09-06, 00:40:00,VALID,0,VALID,98.0852,VALID,0,VALID,17.9217,VALID,176,VALID,0,
1999-09-06, 00:41:00,VALID,0,VALID,97.5015,VALID,0,VALID,17.8707,VALID,176,VALID,0,
1999-09-06, 00:42:00,VALID,0,VALID,97.0629,VALID,-0.0169808,VALID,17.8455,VALID,176,VALID,0,
1999-09-06, 00:43:00,VALID,0,VALID,96.647,VALID,0,VALID,17.8164,VALID,151,VALID,0.135417,
1999-09-06, 00:44:00,VALID,0,VALID,96.736,VALID,-0.0169808,VALID,17.7738,VALID,84,VALID,0.518674,
1999-09-06, 00:45:00,VALID,0,VALID,97.1124,VALID,-0.0169808,VALID,17.7417,VALID,91,VALID,0.554905,
1999-09-06, 00:46:00,VALID,0,VALID,97.101,VALID,-0.0169808,VALID,17.7031,VALID,100,VALID,0.568555,
1999-09-06, 00:47:00,VALID,0,VALID,97.2752,VALID,0,VALID,17.7061,VALID,96,VALID,0.689631,
1999-09-06, 00:48:00,VALID,0,VALID,97.6274,VALID,0,VALID,17.7253,VALID,83,VALID,0.77096,
1999-09-06, 00:49:00,VALID,0,VALID,97.8894,VALID,0.0169808,VALID,17.7507,VALID,81,VALID,0.524306,
1999-09-06, 00:50:00,VALID,0,VALID,97.7292,VALID,0,VALID,17.7638,VALID,85,VALID,0.430859,
1999-09-06, 00:51:00,VALID,0,VALID,97.6058,VALID,0,VALID,17.7835,VALID,109,VALID,0.343277,
1999-09-06, 00:52:00,VALID,0,VALID,97.7457,VALID,0,VALID,17.8058,VALID,124,VALID,0.388529,
1999-09-06, 00:53:00,VALID,0,VALID,97.8729,VALID,-0.0169808,VALID,17.855,VALID,137,VALID,0.41276,
1999-09-06, 00:54:00,VALID,0,VALID,97.7991,VALID,0,VALID,17.8772,VALID,169,VALID,0.456836,
1999-09-06, 00:55:00,VALID,0,VALID,96.9115,VALID,0,VALID,17.8252,VALID,202,VALID,0.474669,
1999-09-06, 00:56:00,VALID,0,VALID,96.6165,VALID,0,VALID,17.8026,VALID,230,VALID,0.703887,
1999-09-06, 00:57:00,VALID,0,VALID,97.0781,VALID,0,VALID,17.7837,VALID,230,VALID,1.05816,
1999-09-06, 00:58:00,VALID,0,VALID,97.2867,VALID,0,VALID,17.7507,VALID,229,VALID,0.923437,
1999-09-06, 00:59:00,VALID,0,VALID,97.4354,VALID,0,VALID,17.735,VALID,234,VALID,0.919508,
1999-09-06, 01:00:00,VALID,0,VALID,97.7546,VALID,-0.0169808,VALID,17.7348,VALID,225,VALID,0.960747,
1999-09-06, 01:01:00,VALID,0,VALID,98.0522,VALID,0,VALID,17.7507,VALID,218,VALID,0.690755,
1999-09-06, 01:02:00,VALID,0,VALID,98.2582,VALID,0.0169808,VALID,17.7671,VALID,212,VALID,0.833203,
1999-09-06, 01:03:00,VALID,0,VALID,98.4286,VALID,0,VALID,17.7832,VALID,210,VALID,0.646307,
1999-09-06, 01:04:00,VALID,0,VALID,98.5761,VALID,0.0169808,VALID,17.7899,VALID,209,VALID,0.644817,
1999-09-06, 01:05:00,VALID,0,VALID,98.6333,VALID,0,VALID,17.8058,VALID,205,VALID,0.340929,
1999-09-06, 01:06:00,VALID,0,VALID,98.5837,VALID,0,VALID,17.7835,VALID,205,VALID,0.332227,
1999-09-06, 01:07:00,VALID,0,VALID,98.5227,VALID,0,VALID,17.7874,VALID,207,VALID,0.588542,
1999-09-06, 01:08:00,VALID,0,VALID,98.4286,VALID,-0.0169808,VALID,17.7583,VALID,195,VALID,0.33689,
1999-09-06, 01:09:00,VALID,0,VALID,98.2734,VALID,-0.0509425,VALID,17.7285,VALID,184,VALID,0.136936,
1999-09-06, 01:10:01,VALID,0,VALID,98.1577,VALID,0,VALID,17.719,VALID,181,VALID,0.259375,
1999-09-06, 01:11:00,VALID,0,VALID,97.8093,VALID,-0.0169808,VALID,17.6805,VALID,157,VALID,0.357955,
1999-09-06, 01:12:00,VALID,0,VALID,97.8843,VALID,0,VALID,17.6671,VALID,225,VALID,0.306784,
1999-09-06, 01:13:00,VALID,0,VALID,97.8652,VALID,0,VALID,17.638,VALID,230,VALID,0.0292969,
1999-09-06, 01:14:00,VALID,0,VALID,98.0026,VALID,0,VALID,17.6546,VALID,201,VALID,0,
1999-09-06, 01:15:00,VALID,0,VALID,97.9631,VALID,-0.0169808,VALID,17.6413,VALID,195,VALID,0,
1999-09-06, 01:16:00,VALID,0,VALID,98.0127,VALID,-0.0169808,VALID,17.6382,VALID,183,VALID,0,
1999-09-06, 01:17:00,VALID,0,VALID,97.7775,VALID,0.0169808,VALID,17.6154,VALID,180,VALID,0,
1999-09-06, 01:18:00,VALID,0,VALID,97.8818,VALID,0,VALID,17.6253,VALID,239,VALID,0.19043,
1999-09-06, 01:19:00,VALID,0,VALID,97.8474,VALID,0.0169808,VALID,17.612,VALID,235,VALID,0.754498,
1999-09-06, 01:20:00,VALID,0,VALID,97.794,VALID,0,VALID,17.5829,VALID,223,VALID,0.579649,
1999-09-06, 01:21:00,VALID,0,VALID,98.1653,VALID,0,VALID,17.5932,VALID,233,VALID,0.564236,
1999-09-06, 01:22:01,VALID,0,VALID,98.5239,VALID,0,VALID,17.6385,VALID,236,VALID,0.429102,
1999-09-06, 01:23:00,VALID,0,VALID,98.5811,VALID,0,VALID,17.641,VALID,209,VALID,0.446733,
1999-09-06, 01:24:00,VALID,0,VALID,98.5519,VALID,0,VALID,17.6348,VALID,218,VALID,0.129764,
1999-09-06, 01:25:00,VALID,0,VALID,98.5989,VALID,0,VALID,17.6348,VALID,217,VALID,0.229601,
1999-09-06, 01:26:00,VALID,0,VALID,98.6943,VALID,0,VALID,17.6346,VALID,218,VALID,0.0597656,
1999-09-06, 01:27:00,VALID,0,VALID,98.7541,VALID,0.0169808,VALID,17.6542,VALID,218,VALID,0,
1999-09-06, 01:28:00,VALID,0,VALID,98.8622,VALID,0,VALID,17.677,VALID,218,VALID,0,
1999-09-06, 01:29:00,VALID,0,VALID,98.8329,VALID,0,VALID,17.6934,VALID,218,VALID,0,
1999-09-06, 01:30:00,VALID,0,VALID,98.7935,VALID,0,VALID,17.6835,VALID,218,VALID,0,
1999-09-06, 01:31:00,VALID,0,VALID,98.81,VALID,0,VALID,17.6994,VALID,218,VALID,0,
1999-09-06, 01:32:00,VALID,0,VALID,98.7439,VALID,0,VALID,17.6992,VALID,218,VALID,0,
1999-09-06, 01:33:00,VALID,0,VALID,98.6727,VALID,0,VALID,17.7124,VALID,218,VALID,0,
1999-09-06, 01:34:00,VALID,0,VALID,98.7477,VALID,0.0169808,VALID,17.7412,VALID,218,VALID,0,
1999-09-06, 01:35:00,VALID,0,VALID,98.8253,VALID,0,VALID,17.7798,VALID,218,VALID,0,
1999-09-06, 01:36:00,VALID,0,VALID,98.7197,VALID,0,VALID,17.8033,VALID,218,VALID,0,
1999-09-06, 01:37:00,VALID,0,VALID,98.5061,VALID,0,VALID,17.7899,VALID,218,VALID,0,
1999-09-06, 01:38:00,VALID,0,VALID,98.276,VALID,0,VALID,17.771,VALID,218,VALID,0,
1999-09-06, 01:39:00,VALID,0,VALID,98.2531,VALID,0.0339617,VALID,17.7707,VALID,218,VALID,0,
1999-09-06, 01:40:00,VALID,0,VALID,98.4629,VALID,0,VALID,17.7897,VALID,218,VALID,0,
1999-09-06, 01:41:00,VALID,0,VALID,98.6307,VALID,0,VALID,17.8449,VALID,218,VALID,0,
1999-09-06, 01:42:00,VALID,0,VALID,98.6409,VALID,0,VALID,17.8772,VALID,218,VALID,0,
1999-09-06, 01:43:00,VALID,0,VALID,98.4616,VALID,0,VALID,17.8931,VALID,217,VALID,0.208807,
1999-09-06, 01:44:00,VALID,0,VALID,97.9835,VALID,-0.0339617,VALID,17.8707,VALID,214,VALID,0.329268,
1999-09-06, 01:45:00,VALID,0,VALID,97.7762,VALID,0.0169808,VALID,17.8515,VALID,213,VALID,0,
1999-09-06, 01:46:00,VALID,0,VALID,97.555,VALID,0.0169808,VALID,17.8289,VALID,213,VALID,0,
1999-09-06, 01:47:00,VALID,0,VALID,97.2816,VALID,0.0169808,VALID,17.813,VALID,209,VALID,0.0426136,
1999-09-06, 01:48:00,VALID,0,VALID,97.3197,VALID,-0.0169808,VALID,17.8026,VALID,148,VALID,0.161585,
1999-09-06, 01:49:00,VALID,0,VALID,97.2841,VALID,0,VALID,17.8158,VALID,148,VALID,0.0855035,
1999-09-06, 01:50:00,VALID,0,VALID,97.677,VALID,-0.0169808,VALID,17.8739,VALID,148,VALID,0.10332,
1999-09-06, 01:51:00,VALID,0,VALID,97.4456,VALID,-0.0339617,VALID,17.8908,VALID,148,VALID,0,
1999-09-06, 01:52:00,VALID,0,VALID,97.368,VALID,0.0169808,VALID,17.8936,VALID,148,VALID,0.000952744,
1999-09-06, 01:53:00,VALID,0,VALID,97.3121,VALID,-0.0339617,VALID,17.897,VALID,148,VALID,0,
1999-09-06, 01:54:01,VALID,0,VALID,97.1836,VALID,0,VALID,17.9201,VALID,148,VALID,0,
1999-09-06, 01:55:00,VALID,0,VALID,96.9306,VALID,-0.0679233,VALID,17.9231,VALID,148,VALID,0.184659,
1999-09-06, 01:56:00,VALID,0,VALID,96.717,VALID,-0.101885,VALID,17.9203,VALID,148,VALID,0,
1999-09-06, 01:57:00,VALID,0,VALID,96.5122,VALID,-0.101885,VALID,17.9143,VALID,148,VALID,0.0366753,
1999-09-06, 01:58:00,VALID,0,VALID,96.5415,VALID,-0.101885,VALID,17.924,VALID,148,VALID,0,
1999-09-06, 01:59:00,VALID,0,VALID,96.9713,VALID,-0.101885,VALID,17.9369,VALID,148,VALID,0,
1999-09-06, 02:00:00,VALID,0,VALID,96.6801,VALID,-0.0849042,VALID,17.9238,VALID,148,VALID,0,
1999-09-06, 02:01:00,VALID,0,VALID,96.7093,VALID,-0.135847,VALID,17.921,VALID,147,VALID,0,
1999-09-06, 02:02:00,VALID,0,VALID,96.7144,VALID,-0.101885,VALID,17.9076,VALID,85,VALID,0.196289,
1999-09-06, 02:03:00,VALID,0,VALID,96.7475,VALID,-0.101885,VALID,17.9108,VALID,85,VALID,0.373106,
1999-09-06, 02:04:00,VALID,0,VALID,97.2129,VALID,-0.101885,VALID,17.9272,VALID,85,VALID,0.0552591,
1999-09-06, 02:05:00,VALID,0,VALID,97.3515,VALID,-0.101885,VALID,17.9335,VALID,92,VALID,0,
1999-09-06, 02:06:01,VALID,0,VALID,96.9993,VALID,-0.101885,VALID,17.9076,VALID,111,VALID,0.338086,
1999-09-06, 02:07:00,VALID,0,VALID,96.9433,VALID,-0.101885,VALID,17.9272,VALID,106,VALID,0.422822,
1999-09-06, 02:08:00,VALID,0,VALID,97.232,VALID,-0.101885,VALID,17.9626,VALID,102,VALID,0.557546,
1999-09-06, 02:09:00,VALID,0,VALID,97.3261,VALID,-0.101885,VALID,17.972,VALID,99,VALID,0.566189,
1999-09-06, 02:10:00,VALID,0,VALID,97.4469,VALID,-0.0509425,VALID,18.0138,VALID,122,VALID,0.41543,
1999-09-06, 02:11:00,VALID,0,VALID,97.4825,VALID,0,VALID,18.0385,VALID,126,VALID,0.390152,
1999-09-06, 02:12:00,VALID,0,VALID,97.4431,VALID,0,VALID,18.0547,VALID,147,VALID,0.357279,
1999-09-06, 02:13:00,VALID,0,VALID,97.3223,VALID,0,VALID,18.0582,VALID,175,VALID,0.234809,
1999-09-06, 02:14:00,VALID,0,VALID,96.8505,VALID,0.0169808,VALID,18.0385,VALID,175,VALID,0.305273,
1999-09-06, 02:15:00,VALID,0,VALID,96.319,VALID,0.0169808,VALID,17.9829,VALID,192,VALID,0.497869,
1999-09-06, 02:16:00,VALID,0,VALID,96.2821,VALID,0.0169808,VALID,17.9123,VALID,223,VALID,0.765244,
1999-09-06, 02:17:00,VALID,0,VALID,96.736,VALID,0.0169808,VALID,17.8407,VALID,213,VALID,0.755425,
1999-09-06, 02:18:00,VALID,0,VALID,97.3566,VALID,0,VALID,17.8449,VALID,213,VALID,1.09785,
1999-09-06, 02:19:00,VALID,0,VALID,97.6999,VALID,0,VALID,17.8282,VALID,216,VALID,1.17992,
1999-09-06, 02:20:00,VALID,0,VALID,97.9161,VALID,0.0169808,VALID,17.8285,VALID,218,VALID,1.31021,
1999-09-06, 02:21:00,VALID,0,VALID,97.986,VALID,0,VALID,17.8287,VALID,213,VALID,1.20052,
1999-09-06, 02:22:00,VALID,0,VALID,98.103,VALID,0,VALID,17.8252,VALID,211,VALID,1.16973,
1999-09-06, 02:23:00,VALID,0,VALID,98.3548,VALID,0.0339617,VALID,17.8379,VALID,212,VALID,1.19981,
1999-09-06, 02:24:00,VALID,0,VALID,98.4514,VALID,-0.0169808,VALID,17.8772,VALID,206,VALID,0.97904,
1999-09-06, 02:25:00,VALID,0,VALID,98.3077,VALID,0.0169808,VALID,17.8869,VALID,207,VALID,0.817925,
1999-09-06, 02:26:00,VALID,0,VALID,98.1946,VALID,0.0169808,VALID,17.8804,VALID,216,VALID,0.966602,
1999-09-06, 02:27:00,VALID,0,VALID,98.1348,VALID,0,VALID,17.8576,VALID,225,VALID,0.880682,
1999-09-06, 02:28:00,VALID,0,VALID,98.1971,VALID,0,VALID,17.864,VALID,222,VALID,1.3529,
1999-09-06, 02:29:00,VALID,0,VALID,98.3103,VALID,0.0509425,VALID,17.8442,VALID,219,VALID,1.42405,
1999-09-06, 02:30:00,VALID,0,VALID,98.3866,VALID,0.0339617,VALID,17.8352,VALID,220,VALID,1.00625,
1999-09-06, 02:31:00,VALID,0,VALID,98.4375,VALID,0.0339617,VALID,17.7929,VALID,220,VALID,0.736979,
1999-09-06, 02:32:00,VALID,0,VALID,98.4998,VALID,0.0169808,VALID,17.7673,VALID,204,VALID,0.612995,
1999-09-06, 02:33:00,VALID,0,VALID,98.5888,VALID,0,VALID,17.7375,VALID,203,VALID,0.485243,
1999-09-06, 02:34:00,VALID,0,VALID,98.6778,VALID,0.0339617,VALID,17.7348,VALID,202,VALID,0.548242,
1999-09-06, 02:35:00,VALID,0,VALID,98.7503,VALID,0,VALID,17.7414,VALID,199,VALID,0.523438,
1999-09-06, 02:36:00,VALID,0,VALID,98.7833,VALID,0.0169808,VALID,17.735,VALID,196,VALID,0.234566,
1999-09-06, 02:37:00,VALID,0,VALID,98.7604,VALID,0,VALID,17.7218,VALID,205,VALID,0.416016,
1999-09-06, 02:38:01,VALID,0,VALID,98.6943,VALID,0,VALID,17.7225,VALID,201,VALID,0.30957,
1999-09-06, 02:39:01,VALID,0,VALID,98.6714,VALID,0,VALID,17.7158,VALID,200,VALID,0.450047,
1999-09-06, 02:40:00,VALID,0,VALID,98.5481,VALID,0,VALID,17.6863,VALID,219,VALID,0.388338,
1999-09-06, 02:41:00,VALID,0,VALID,98.4832,VALID,0,VALID,17.6574,VALID,201,VALID,0.0965712,
1999-09-06, 02:42:00,VALID,0,VALID,98.4959,VALID,0.0169808,VALID,17.6477,VALID,221,VALID,0.223633,
1999-09-06, 02:43:00,VALID,0,VALID,98.5633,VALID,0,VALID,17.6637,VALID,223,VALID,0,
1999-09-06, 02:44:00,VALID,0,VALID,98.5583,VALID,0.0169808,VALID,17.6572,VALID,223,VALID,0,
1999-09-06, 02:45:00,VALID,0,VALID,98.5544,VALID,0.0169808,VALID,17.651,VALID,221,VALID,0,
1999-09-06, 02:46:00,VALID,0,VALID,98.4502,VALID,0.0339617,VALID,17.6247,VALID,208,VALID,0,
1999-09-06, 02:47:00,VALID,0,VALID,98.4718,VALID,0,VALID,17.6055,VALID,179,VALID,0,
1999-09-06, 02:48:00,VALID,0,VALID,98.7058,VALID,0,VALID,17.6152,VALID,174,VALID,0,
1999-09-06, 02:49:00,VALID,0,VALID,98.7147,VALID,0,VALID,17.6053,VALID,175,VALID,0,
1999-09-06, 02:50:01,VALID,0,VALID,98.7897,VALID,0.0169808,VALID,17.5995,VALID,179,VALID,0,
1999-09-06, 02:51:00,VALID,0,VALID,98.9258,VALID,0.0169808,VALID,17.599,VALID,193,VALID,0,
1999-09-06, 02:52:00,VALID,0,VALID,99.105,VALID,0,VALID,17.6546,VALID,192,VALID,0,
1999-09-06, 02:53:00,VALID,0,VALID,99.0682,VALID,-0.0169808,VALID,17.654,VALID,201,VALID,0.44401,
1999-09-06, 02:54:00,VALID,0,VALID,99.0097,VALID,0,VALID,17.654,VALID,201,VALID,0.936719,
1999-09-06, 02:55:00,VALID,0,VALID,99.1788,VALID,0.0169808,VALID,17.6994,VALID,204,VALID,1.12098,
1999-09-06, 02:56:00,VALID,0,VALID,99.1445,VALID,0,VALID,17.7772,VALID,196,VALID,1.31117,
1999-09-06, 02:57:00,VALID,0,VALID,98.7719,VALID,0,VALID,17.8162,VALID,198,VALID,0.863281,
1999-09-06, 02:58:00,VALID,0,VALID,98.4654,VALID,0.0169808,VALID,17.8091,VALID,201,VALID,0.80625,
1999-09-06, 02:59:00,VALID,0,VALID,98.365,VALID,0,VALID,17.8352,VALID,190,VALID,1.10251,
1999-09-06, 03:00:00,VALID,0,VALID,98.2938,VALID,0,VALID,17.858,VALID,202,VALID,1.05964,
1999-09-06, 03:01:01,VALID,0,VALID,98.2963,VALID,0,VALID,17.861,VALID,206,VALID,0.984592,
1999-09-06, 03:02:00,VALID,0,VALID,98.3154,VALID,0,VALID,17.8675,VALID,204,VALID,1.0002,
1999-09-06, 03:03:00,VALID,0,VALID,98.3217,VALID,0,VALID,17.8642,VALID,211,VALID,0.820786,
1999-09-06, 03:04:00,VALID,0,VALID,98.3243,VALID,0.0169808,VALID,17.8578,VALID,212,VALID,0.802782,
1999-09-06, 03:05:00,VALID,0,VALID,98.3739,VALID,-0.0169808,VALID,17.8543,VALID,212,VALID,1.0102,
1999-09-06, 03:06:00,VALID,0,VALID,98.4425,VALID,0,VALID,17.8647,VALID,213,VALID,0.790625,
1999-09-06, 03:07:00,VALID,0,VALID,98.454,VALID,0,VALID,17.8673,VALID,208,VALID,1.16619,
1999-09-06, 03:08:00,VALID,0,VALID,98.3523,VALID,0,VALID,17.8737,VALID,220,VALID,0.866997,
1999-09-06, 03:09:00,VALID,0,VALID,98.1539,VALID,-0.0169808,VALID,17.8707,VALID,220,VALID,0.955946,
1999-09-06, 03:10:01,VALID,0,VALID,98.0839,VALID,0,VALID,17.8679,VALID,215,VALID,1.10664,
1999-09-06, 03:11:00,VALID,0,VALID,98.1005,VALID,0,VALID,17.8382,VALID,216,VALID,1.0464,
1999-09-06, 03:12:01,VALID,0,VALID,98.2213,VALID,0,VALID,17.8324,VALID,214,VALID,1.05278,
1999-09-06, 03:13:00,VALID,0,VALID,98.3917,VALID,0,VALID,17.8416,VALID,219,VALID,1.12478,
1999-09-06, 03:14:00,VALID,0,VALID,98.4603,VALID,0.0169808,VALID,17.8642,VALID,216,VALID,0.920117,
1999-09-06, 03:15:00,VALID,0,VALID,98.4387,VALID,0,VALID,17.8966,VALID,216,VALID,0.873106,
1999-09-06, 03:16:00,VALID,0,VALID,98.3319,VALID,0,VALID,17.9291,VALID,219,VALID,0.611281,
1999-09-06, 03:17:00,VALID,0,VALID,98.1869,VALID,0,VALID,17.9284,VALID,210,VALID,0.501085,
1999-09-06, 03:18:00,VALID,0,VALID,97.9492,VALID,0,VALID,17.9418,VALID,204,VALID,0.486914,
1999-09-06, 03:19:00,VALID,0,VALID,97.7368,VALID,0,VALID,17.9289,VALID,212,VALID,0.483191,
1999-09-06, 03:20:00,VALID,0,VALID,97.6961,VALID,0,VALID,17.952,VALID,206,VALID,0.393102,
1999-09-06, 03:21:00,VALID,0,VALID,97.2078,VALID,0.0169808,VALID,17.9261,VALID,184,VALID,0.286024,
1999-09-06, 03:22:01,VALID,0,VALID,96.3457,VALID,0.0169808,VALID,17.8354,VALID,182,VALID,0.376563,
1999-09-06, 03:23:01,VALID,0,VALID,96.2541,VALID,0,VALID,17.7544,VALID,182,VALID,0.256392,
1999-09-06, 03:24:00,VALID,0,VALID,96.9141,VALID,0.0169808,VALID,17.7186,VALID,182,VALID,0.046875,
1999-09-06, 03:25:00,VALID,0,VALID,97.2663,VALID,0,VALID,17.6768,VALID,182,VALID,0,
1999-09-06, 03:26:00,VALID,0,VALID,97.3706,VALID,0,VALID,17.6443,VALID,176,VALID,0,
1999-09-06, 03:27:00,VALID,0,VALID,97.5855,VALID,0.0169808,VALID,17.6286,VALID,159,VALID,0.578835,
1999-09-06, 03:28:00,VALID,0,VALID,97.6719,VALID,0,VALID,17.5764,VALID,156,VALID,0.790206,
1999-09-06, 03:29:00,VALID,0,VALID,97.8843,VALID,0,VALID,17.5605,VALID,145,VALID,0.736979,
1999-09-06, 03:30:00,VALID,0,VALID,97.9555,VALID,0.0509425,VALID,17.5478,VALID,144,VALID,0.899219,
1999-09-06, 03:31:00,VALID,0,VALID,98.2302,VALID,0.0679233,VALID,17.5699,VALID,137,VALID,0.762784,
1999-09-06, 03:32:00,VALID,0,VALID,98.0038,VALID,0,VALID,17.518,VALID,142,VALID,0.607088,
1999-09-06, 03:33:00,VALID,0,VALID,97.9949,VALID,0.0169808,VALID,17.5058,VALID,148,VALID,0.792535,
1999-09-06, 03:34:01,VALID,0,VALID,98.5023,VALID,0,VALID,17.5247,VALID,161,VALID,0.858984,
1999-09-06, 03:35:00,VALID,0,VALID,98.7782,VALID,0,VALID,17.5893,VALID,170,VALID,0.666193,
1999-09-06, 03:36:00,VALID,0,VALID,98.7808,VALID,0.0169808,VALID,17.6089,VALID,180,VALID,0.648628,
1999-09-06, 03:37:00,VALID,0,VALID,98.7045,VALID,0,VALID,17.6189,VALID,210,VALID,0.690755,
1999-09-06, 03:38:00,VALID,0,VALID,98.5544,VALID,0.0169808,VALID,17.5896,VALID,232,VALID,0.864258,
1999-09-06, 03:39:00,VALID,0,VALID,98.7541,VALID,0,VALID,17.6219,VALID,221,VALID,1.116,
1999-09-06, 03:40:00,VALID,0,VALID,98.8139,VALID,-0.0339617,VALID,17.6484,VALID,214,VALID,0.939787,
1999-09-06, 03:41:00,VALID,0,VALID,98.796,VALID,-0.101885,VALID,17.6521,VALID,215,VALID,0.709418,
1999-09-06, 03:42:00,VALID,0,VALID,98.7592,VALID,-0.0679233,VALID,17.6691,VALID,223,VALID,0.461328,
1999-09-06, 03:43:00,VALID,0,VALID,98.7108,VALID,-0.0679233,VALID,17.6458,VALID,224,VALID,0.0331439,
1999-09-06, 03:44:00,VALID,0,VALID,98.6562,VALID,-0.0849042,VALID,17.6331,VALID,218,VALID,0.00114329,
1999-09-06, 03:45:00,VALID,0,VALID,98.515,VALID,-0.0679233,VALID,17.5907,VALID,214,VALID,0,
1999-09-06, 03:46:00,VALID,0,VALID,98.4349,VALID,-0.0679233,VALID,17.5484,VALID,188,VALID,0,
1999-09-06, 03:47:00,VALID,0,VALID,98.3077,VALID,-0.101885,VALID,17.4997,VALID,177,VALID,0.248816,
1999-09-06, 03:48:00,VALID,0,VALID,98.4069,VALID,-0.0679233,VALID,17.4875,VALID,171,VALID,0.411776,
1999-09-06, 03:49:00,VALID,0,VALID,98.323,VALID,-0.0679233,VALID,17.4517,VALID,164,VALID,0.347873,
1999-09-06, 03:50:00,VALID,0,VALID,98.2709,VALID,-0.0339617,VALID,17.4291,VALID,165,VALID,0.270508,
1999-09-06, 03:51:00,VALID,0,VALID,98.3408,VALID,-0.0849042,VALID,17.4067,VALID,166,VALID,0.412642,
1999-09-06, 03:52:00,VALID,0,VALID,98.4985,VALID,-0.0849042,VALID,17.3871,VALID,166,VALID,0.477134,
1999-09-06, 03:53:00,VALID,0,VALID,98.4654,VALID,-0.101885,VALID,17.361,VALID,166,VALID,0.460286,
1999-09-06, 03:54:01,VALID,0,VALID,98.2518,VALID,-0.0679233,VALID,17.3,VALID,166,VALID,0.327148,
1999-09-06, 03:55:00,VALID,0,VALID,97.9924,VALID,-0.0679233,VALID,17.2188,VALID,165,VALID,0.439631,
1999-09-06, 03:56:00,VALID,0,VALID,97.9466,VALID,-0.101885,VALID,17.1712,VALID,158,VALID,0.768102,
1999-09-06, 03:57:00,VALID,0,VALID,98.7007,VALID,-0.0849042,VALID,17.2259,VALID,155,VALID,0.793403,
1999-09-06, 03:58:00,VALID,0,VALID,99.1063,VALID,-0.0679233,VALID,17.3065,VALID,159,VALID,0.770508,
1999-09-06, 03:59:00,VALID,0,VALID,99.2818,VALID,-0.0679233,VALID,17.3741,VALID,162,VALID,0.663826,
1999-09-06, 04:00:00,VALID,0,VALID,99.2704,VALID,-0.0679233,VALID,17.4325,VALID,166,VALID,0.717035,
1999-09-06, 04:01:00,VALID,0,VALID,99.2932,VALID,-0.0849042,VALID,17.4909,VALID,166,VALID,0.932075,
1999-09-06, 04:02:00,VALID,0,VALID,99.1165,VALID,-0.0679233,VALID,17.5392,VALID,165,VALID,0.920313,
1999-09-06, 04:03:00,VALID,0,VALID,98.9283,VALID,-0.0849042,VALID,17.5842,VALID,169,VALID,0.705492,
1999-09-06, 04:04:00,VALID,0,VALID,98.4362,VALID,-0.101885,VALID,17.5745,VALID,193,VALID,0.420351,
1999-09-06, 04:05:00,VALID,0,VALID,97.9046,VALID,-0.101885,VALID,17.5073,VALID,214,VALID,0.384332,
1999-09-06, 04:06:01,VALID,0,VALID,97.8004,VALID,-0.101885,VALID,17.4845,VALID,221,VALID,0.314453,
1999-09-06, 04:07:00,VALID,0,VALID,97.9619,VALID,-0.101885,VALID,17.4814,VALID,221,VALID,0.267992,
1999-09-06, 04:08:00,VALID,0,VALID,98.1119,VALID,-0.0849042,VALID,17.4646,VALID,220,VALID,0.252858,
1999-09-06, 04:09:00,VALID,0,VALID,98.1933,VALID,-0.0849042,VALID,17.4588,VALID,211,VALID,0.4477,
1999-09-06, 04:10:00,VALID,0,VALID,98.2225,VALID,-0.101885,VALID,17.4325,VALID,195,VALID,0.487695,
1999-09-06, 04:11:00,VALID,0,VALID,98.2747,VALID,-0.0679233,VALID,17.4265,VALID,180,VALID,0.433949,
1999-09-06, 04:12:00,VALID,0,VALID,98.4502,VALID,-0.101885,VALID,17.4297,VALID,175,VALID,0.453887,